Flag for Lithuania

Past Weather in Vilnius, Lithuania — Yesterday and Last 2 Weeks

Now
72 °F

Sunny.


Feels Like: 76 °F
Forecast: 71 / 51 °F
Wind: 17 mph from Southeast

Location: Vilnius Airport
Current Time: Sep 26, 2020 at 12:52:52 pm
Latest Report: Sep 26, 2020 at 12:20 pm
Visibility: 10 mi
Pressure29.65 "Hg
Humidity: 57%
Dew Point: 55 °F
Location of VilniusLocation

Past Weather in Vilnius — Graph

°F

Vilnius Temperature Yesterday

Maximum temperature yesterday: 73 °F (at 2:20 pm)
Minimum temperature yesterday: 54 °F (at 6:20 am)
Average temperature yesterday: 64 °F

High & Low Weather Summary for the Past Weeks

 TemperatureHumidityPressure
High77 °F (Sep 16, 2:20 pm)100% (Sep 15, 10:20 pm)30.30 "Hg (Sep 15, 10:20 pm)
Low39 °F (Sep 21, 6:50 am)46% (Sep 12, 1:20 pm)29.62 "Hg (Sep 26, 6:20 am)
Average58 °F76%30.05 "Hg
* Reported Sep 11 11:20 am — Sep 26 11:50 am, Vilnius. Weather by CustomWeather, © 2020

Note: Actual official high and low records may vary slightly from our data, if they occured in-between our weather recording intervals... More about our weather records

Vilnius Weather History for the Previous 24 Hours

Scroll right to see more
 ConditionsComfort  
Time TempWeatherWind HumidityBarometerVisibility
11:50 am
Sat, Sep 26
70 °FSunny.15 mph60%29.65 "Hg10 mi
11:20 am70 °FSunny.14 mph64%29.65 "Hg10 mi
10:50 am68 °FSunny.14 mph64%29.65 "Hg10 mi
10:20 am66 °FSunny.12 mph68%29.65 "Hg10 mi
9:50 am64 °FSunny.13 mph68%29.65 "Hg10 mi
9:20 am63 °FSunny.10 mph73%29.65 "Hg10 mi
8:50 am61 °FSunny.10 mph72%29.65 "Hg10 mi
8:20 am59 °FSunny.9 mph77%29.62 "Hg10 mi
7:50 am59 °FSunny.12 mph77%29.62 "Hg10 mi
7:20 am59 °FSunny.9 mph77%29.65 "Hg10 mi
6:50 am59 °FClear.10 mph77%29.65 "Hg10 mi
6:20 am61 °FClear.10 mph72%29.62 "Hg10 mi
5:50 am61 °FClear.9 mph72%29.65 "Hg10 mi
5:20 am61 °FClear.9 mph72%29.65 "Hg10 mi
4:50 am61 °FClear.10 mph72%29.65 "Hg10 mi
4:20 am61 °FClear.9 mph68%29.65 "Hg10 mi
3:50 am63 °FClear.10 mph64%29.65 "Hg10 mi
3:20 am63 °FClear.9 mph64%29.65 "Hg10 mi
2:50 am63 °FClear.10 mph64%29.65 "Hg10 mi
2:20 am63 °FClear.10 mph68%29.65 "Hg10 mi
1:50 am63 °FClear.12 mph68%29.65 "Hg10 mi
1:20 am64 °FClear.12 mph64%29.65 "Hg10 mi
12:50 am64 °FClear.14 mph64%29.65 "Hg10 mi
12:20 am64 °FClear.14 mph60%29.68 "Hg10 mi
11:50 pm
Fri, Sep 25
64 °FClear.10 mph64%29.68 "Hg10 mi
11:20 pm64 °FClear.10 mph64%29.68 "Hg10 mi
10:20 pm66 °FClear.10 mph64%29.68 "Hg10 mi
9:50 pm66 °FClear.10 mph64%29.68 "Hg10 mi
9:20 pm64 °FClear.8 mph68%29.68 "Hg10 mi
8:50 pm64 °FClear.9 mph68%29.68 "Hg10 mi
8:20 pm64 °FClear.9 mph68%29.68 "Hg10 mi
7:50 pm66 °FClear.9 mph64%29.68 "Hg10 mi
7:20 pm68 °FClear.9 mph60%29.68 "Hg10 mi
6:50 pm70 °FSunny.8 mph60%29.68 "Hg10 mi
6:20 pm70 °FSunny.8 mph60%29.68 "Hg10 mi
5:50 pm72 °FSunny.9 mph57%29.68 "Hg10 mi
5:20 pm73 °FSunny.13 mph53%29.71 "Hg10 mi
4:50 pm73 °FPassing clouds.13 mph50%29.71 "HgN/A
4:20 pm73 °FSunny.13 mph53%29.71 "Hg10 mi
3:50 pm73 °FSunny.15 mph53%29.71 "Hg10 mi
3:20 pm73 °FSunny.12 mph53%29.71 "Hg10 mi
2:50 pm73 °FSunny.12 mph53%29.71 "Hg10 mi
2:20 pm73 °FSunny.12 mph53%29.74 "Hg10 mi
1:50 pm72 °FPassing clouds.9 mph57%29.74 "HgN/A
1:20 pm72 °FPassing clouds.10 mph53%29.74 "HgN/A
12:50 pm72 °FPassing clouds.7 mph57%29.74 "HgN/A
12:20 pm70 °FPassing clouds.9 mph57%29.77 "HgN/A
Weather by CustomWeather, © 2020

See weather overview